Погода Чёрный Яр

Поиск расширенной информации на нашем сайте:

Полезная информация:

Новости сайта



02.01.2020
Опубликован Долгосрочный прогноз погоды по городам России и ближнего зарубежья на январь 2020 года.
Карты: Прогноз на январь и февраль 2020 года, Сравнение прогнозируемой аномалии приземной температуры воздуха на январь 2020 года по разным моделям.




Погода Чёрный Яр - сегодня

Время (UTC), дата Ветер
(°,м/с) 
Видим.   Явления Облачность Т
(°С)
Тd
(°С)
f(%) Тe
(°С)
Pmin
(гПа)
dP
(гПа)
Po
(мм)
O2
(г/м3)
Тmin Tmax R s Состояние
почвы
15 18.10.20 140 (ЮВ) 5{11}  10 км    10/0 средняя 
[Ac und]
+23.3 +11.5 47 +26  1008.8  -2.1  756  279    +24.5       
18 18.10.20 150 (ЮВ) 10 км    ясно 
+16.4 +12.7 79 +22  1015.7  0.8  761  287           
21 18.10.20 170 (Ю) 4000 м  дымка  ясно 
+13.5 +12.4 93 +18  1015.6  -0.1  761  290           
00 19.10.20 200 (Ю) 4000 м  дымка  8/0 средняя 
[Ac trans]
+12 +11.7 98 +15  1016.1  0.5  762  292           
03 19.10.20 120 (ЮВ) 10 км  дымка  8/0 средняя, верхняя 
[Ac cast|Ci fib]
+12.3 +12.1 99 +18  1015.9  -0.2  761  291  +11.6         
06 19.10.20 310 (СЗ) 4000 м  дымка{туман}  10/0 средняя 
[Ac cast]
+14.7 +12.2 85 +20  1016.9  762  289           
09 19.10.20 320 (СЗ) 10 км    10/0 средняя, верхняя 
[Ac cast|Ci fib]
+19.1 +12.6 66 +24  1016.7  -0.1  762  285           
12 19.10.20 330 (СЗ) 10 км    10/0 средняя, верхняя 
[Ac cast|Ci]
+18.5 +10.3 59 +20  1015.8  -1  761  285           
15 19.10.20 340 (С) 10 км    10/0 средняя 
[Ac cast]
+15 +8.7 66 +16  1016.3  0.5  762  289    +19.9       
18 19.10.20 330 (СЗ) 10 км    10/0 средняя 
[Ac cast]
+13.6 +8.5 71 +14  1016  -0.2  762  291           
21 19.10.20 330 (СЗ) 5{10}  10 км  слаб. ливневой дождь  10/10 300 м кучево-дожд. 
[Cb calv]
+10.5 +10.1 97 +10  1016.9  0.8  762  294           
00 20.10.20 340 (С) 10 км  слаб. ливневой дождь  10/10 300 м кучево-дожд. 
[Cb calv]
+7.8 +7.4 97 +7  1018.8  1.9  764  298           
03 20.10.20 260 (З) 4000 м  дымка{ливн. осадки}  10/0 средняя 
[Ac cast]
+7.6 +7.2 97 +8  1021.1  2.3  765  299  +7.6       
06 20.10.20 250 (З) 10 км  {ливн. осадки}  ясно 
+10 +6.9 81 +10  1022.2  1.1  766  297  +6.9         
09 20.10.20 250 (З) 1000 м    8/8 1000 м 
[Cu med, cong]
+13.5 +6 60 +14  1022.2  766  293           
12 20.10.20 270 (З) 10 км    10/10 1000 м 
[Sc diur, vesp]
+13.7 +2.3 46 +14  1021.9  0.2  766  294           
15 20.10.20 240 (ЮЗ) 10 км    3/0 средняя 
[Ac cast]
+10.2 +4.1 66 +10  1021.8  -0.6  766  297    +14.3       
18 20.10.20 230 (ЮЗ) 4000 м  дымка  ясно 
+6 +4.7 91 +5  1022.4  0.6  766  301           
21 20.10.20 240 (ЮЗ) 4000 м  дымка  ясно 
+4.2 +3.3 94 +3  1022.8  0.1  767  304           
00 21.10.20 240 (ЮЗ) 4000 м  дымка  ясно 
+2.9 +1.4 90 +1  1023.1  0.3  767  306           
03 21.10.20 250 (З) 4000 м  дымка  1/0 средняя 
[Ac cast]
+3.1 +1.2 87 +3  1024.4  1.3  768  306  +2.7         
06 21.10.20 280 (З) 10 км    ясно 
+6.6 +1.5 70 +5  1026.2  1.8  769  302  +2.5         
09 21.10.20 260 (З) 6{10}  10 км    3/0 средняя 
[Ac cast]
+10.7 -1 44 +9  1026.3  0.1  769  298           
12 21.10.20 280 (З) 6{12}  10 км    4/0 средняя 
[Ac cast]
+10.4 -2.6 40 +9  1025.6  -0.7  769  299           
15 21.10.20 260 (З) 10 км    5/0 средняя 
[Ac cast]
+7.4 -0.6 57 +7  1026.1  0.6  769  302    +11.3       
Время (UTC), дата Ветер
(°,м/с) 
Видим.   Явления Облачность Т
(°С)
Тd
(°С)
f(%) Тe
(°С)
Pmin
(гПа)
dP
(гПа)
Po
(мм)
O2
(г/м3)
Тmin Tmax R s Состояние
почвы

Для получения пояснительной информации подведите курсор к названию столбца.

ПОГОДА Чёрный Яр - архив

Всё, что Вы хотите узнать о погоде Чёрный Яр - удобно и подробно!

Выберите нужную дату (начиная с 1 января 2019* года) и нажмите кнопку "Найти".
Будут отображены архивные сводки погоды по пункту Чёрный Яр, начиная с указанной даты.


Отображать данные в формате CSV (для использования в таблицах Excel)


Внимание! Наш архив погоды предназначен исключительно для личного некоммерческого использования в познавательных целях. Если Вам необходимы официальные справки о состоянии погоды (для производственных, юридических, коммерческих и т.п. целей), обращайтесь в органы Росгидромета.

*Примечание: данная дата относится к архиву по метеостанциям СССР (Россия, СНГ, Балтия).
Архив по метеостанциям Зарубежной Европы и Азии (кроме Китая) хранится 10 дней, по другим регионам земного шара (Китай, Африка, Америка, Австралия, Океания) - 1 день.

Чёрный Яр - район местоположения метеостанции


Название, широта, долгота, высота метеостанции:
Чёрный Яр 48.1°ш. 46.1°д. 5 м над ур. моря [Российская Федерация]

Дополнительная информация

В oтличие oт бoльшинства пoгoдных сайтoв мы публикуем пoдрoбную метеoинфoрмацию в детальнoм прoфессиoнальнoм фoрмате.

Характеристики температуры и влажнoсти вoздуха измеряются на высoте 2 м в тени вдали oт зданий и деревьев.
Скoрoсть ветра измеряется на высoте 10 м (на урoвне рoста челoвека скoрoсть ветра ниже в 1.5-2 раза). Если метеoстанция нахoдится в гoрoде или в лесу, тo скoрoсть ветра занижена на 2-4 м/с пo сравнению с oткрытым местoм. Скoрoсть ветра над акватoриями крупных рек и oзёр, а также на вершинах хoлмoв на 2-5 м/с выше, чем в oбычных услoвиях.
Атмoсфернoе давление в разных тoчках местнoсти мoжет значительнo oтличаться oт давления на метеoстанции, в зависимoсти oт услoвий рельефа (при пoдъёме на 10 м давление пoнижается примернo на 1 мм рт.ст.).